Starlink 30494

operational
NORAD ID: 57970 Int'l Des: 2023-151 Owner: SPXS Country: US Constellation: starlink
LEOCIRCULAR

Starlink 30494について

説明を読み込み中...

リアルタイム位置

3D地球を読み込み中...

次回通過

高度履歴

Altitude vs Time

uPlot chart will show altitude changes over time

軌道要素

1 57970U 23151G 25350.32325578 .00050478 00000-0 24933-3 0 9998
2 57970 42.9769 315.4902 0001211 290.4709 69.6032 15.81270785124543
Epoch: Dec 16, 2025 • Age: 14 hours

現在のステータス

高度 325.7 km
速度 7.72 km/s
衛星直下点 4.71°N, 90.18°W
打ち上げ日 Sep 30, 2023
運用期間 2.2 years
タイプ internet

技術仕様

分類 Payload
質量 730.00 kg
乾燥質量 700.00 kg
総質量 730.00 kg
長さ 0.30 m
直径 4.10 m
スパン 29.00 m
形状 Box + pan
製造者 SPXS
バスタイプ Starlink V2M
フェーズステータス In Orbit
所有者/国 SPXS/US

大規模コンステレーション

Loading constellations...